Theta_e
304 305 305 305 306 305 305 306 307 309 310 311 312 312 313 311 307 304 303 307 299 294 301 306 308 303 304 302 295 299 299 301 299 293 292 291 290 291 290 291 289 287 284 284 285 284 280 289 288 281 283 285 290 292
303 304 304 304 304 304 304 305 305 306 309 310 311 312 312 313 307 306 298 306 304 296 301 306 306 308 308 306 301 301 300 301 303 297 295 294 291 293 291 285 294 287 289 285 285 285 289 290 286 290 289 290 291 294
303 303 303 303 303 304 304 304 305 307 308 309 310 311 312 312 308 305 301 302 301 295 298 304 307 312 313 311 311 298 305 307 304 307 299 294 291 296 288 289 289 292 293 288 287 287 287 289 291 290 290 293 294 295
301 302 302 303 303 303 303 303 304 305 306 308 309 311 312 312 309 306 301 302 298 294 290 302 314 309 313 312 311 310 306 309 307 305 300 296 293 299 293 293 290 291 292 287 287 289 288 291 290 289 289 295 294 296
300 301 301 302 302 303 303 304 304 305 306 307 309 311 311 311 307 305 304 303 303 295 291 296 305 310 312 312 308 309 309 307 301 299 298 295 298 297 296 295 290 292 288 285 284 286 285 285 288 290 292 292 293 293
299 300 300 301 302 302 304 305 305 305 306 308 309 310 311 307 305 301 295 305 305 301 293 290 305 305 309 310 309 307 308 306 303 301 299 299 302 297 291 290 292 292 293 290 286 286 285 287 290 291 292 293 293 292
299 299 299 300 300 301 303 304 306 306 307 308 308 310 307 305 303 297 296 299 301 304 293 290 298 307 309 307 307 307 311 307 305 302 299 299 300 298 294 291 289 293 295 293 292 290 287 288 288 291 291 293 294 293
299 299 299 299 300 300 301 303 305 306 307 308 307 306 305 304 303 299 305 303 303 298 297 290 295 301 310 303 301 308 308 308 306 302 301 299 301 299 292 296 295 297 295 293 291 292 291 290 291 291 291 292 291 290
299 298 299 299 300 300 301 303 305 306 306 306 305 304 302 299 296 300 304 304 303 299 291 292 292 294 308 305 305 308 309 300 305 298 298 300 298 294 298 298 296 295 293 292 293 292 291 289 288 291 290 289 288 289
299 298 299 299 300 300 300 302 305 306 305 303 302 297 294 300 307 305 297 294 293 295 294 290 298 294 302 302 300 302 305 299 295 299 303 298 297 303 301 299 297 295 294 294 292 290 290 287 287 288 287 288 289 288
299 299 299 299 299 300 300 302 304 303 301 299 295 294 303 306 301 297 292 289 289 288 292 294 296 295 303 297 298 303 300 301 293 297 295 296 296 299 300 297 297 296 295 296 296 294 293 290 290 287 287 287 288 289
299 299 299 299 299 300 300 301 303 303 301 299 299 302 301 297 294 290 290 292 290 291 298 298 301 302 303 306 299 301 297 299 291 301 295 293 299 301 299 296 296 296 296 295 296 294 293 292 291 290 289 289 289 291
298 299 299 299 299 300 300 300 301 303 302 301 297 293 292 292 286 286 287 292 294 299 302 303 300 302 303 304 300 299 294 294 302 295 293 298 300 300 298 296 295 297 296 296 294 295 293 292 292 291 291 291 292 292
298 298 298 299 300 300 300 300 300 302 300 293 290 285 287 288 290 294 295 298 302 304 303 303 302 300 304 299 299 294 297 298 292 290 292 300 301 299 298 297 296 295 295 294 294 294 293 292 291 292 293 294 293 292
298 298 298 299 300 301 301 301 301 302 297 291 290 286 291 297 300 301 303 300 304 306 303 300 299 299 299 297 299 296 293 290 293 293 299 301 302 299 298 297 296 296 295 294 294 294 293 292 292 292 294 296 296 296
298 297 298 300 301 301 302 304 302 300 295 292 290 288 295 296 298 301 302 302 303 303 302 300 293 295 296 297 294 293 291 290 296 302 303 303 302 299 299 297 297 298 297 296 295 295 294 294 293 293 295 295 295 296
297 294 299 300 300 301 301 298 296 293 291 289 289 295 295 295 296 298 301 302 304 299 293 294 293 294 299 295 293 297 295 299 303 304 305 305 302 299 300 299 298 299 298 298 297 296 296 296 296 295 293 295 297 297
295 298 300 300 300 300 300 297 293 291 287 290 291 294 297 298 298 299 302 304 300 297 296 294 299 295 294 292 295 298 301 305 305 306 306 306 304 302 301 299 299 299 298 298 298 299 297 296 296 296 296 297 297 297
297 299 300 300 299 295 291 292 294 287 290 294 295 297 297 299 301 303 303 304 302 303 299 297 295 295 295 300 301 302 303 305 304 306 306 308 306 304 303 302 301 300 300 299 299 297 298 298 297 298 297 297 296 296
299 299 299 299 298 292 288 288 293 289 289 292 296 296 297 298 300 301 300 299 299 296 294 294 296 300 302 304 305 302 307 308 305 303 303 305 304 304 304 303 301 302 301 301 300 297 299 299 298 298 297 296 295 295
297 297 298 298 294 292 289 290 289 294 296 294 297 298 296 299 298 298 298 300 295 294 295 300 302 304 309 309 306 308 307 308 306 305 304 303 305 303 303 304 304 303 301 300 299 297 296 297 298 299 299 298 298 298
295 299 297 296 290 290 289 293 292 293 294 296 297 298 296 295 296 297 300 295 295 298 301 302 303 306 304 304 306 308 310 309 310 306 303 302 303 303 302 302 302 301 301 300 300 298 297 299 299 298 298 298 297 299
298 297 293 292 288 287 288 297 291 292 289 293 296 293 294 296 298 301 295 298 299 303 304 304 307 308 307 306 306 306 309 308 307 307 306 306 306 306 304 304 304 302 301 301 301 299 298 295 296 298 298 297 298 297
297 290 288 287 288 287 293 290 293 292 293 291 291 290 293 296 300 294 293 298 301 305 304 306 305 305 306 307 307 307 308 308 308 308 308 306 305 305 306 305 304 304 304 303 301 301 299 298 295 297 296 296 296 296
286 287 288 285 291 288 288 288 288 289 287 290 289 291 294 298 294 293 295 298 301 302 304 304 304 304 304 305 306 307 310 308 307 306 308 308 306 306 305 306 305 305 305 303 301 299 299 298 296 295 295 294 294 295
283 289 286 289 289 288 289 287 288 289 290 289 291 295 297 295 291 292 297 301 302 304 305 305 305 304 304 308 304 306 308 310 310 307 308 309 307 305 304 302 302 303 306 305 302 300 298 297 295 295 295 294 289 295
285 288 292 296 295 293 291 293 294 292 289 289 292 292 293 289 290 297 304 306 306 309 309 309 308 307 306 307 308 310 308 311 310 308 310 310 310 310 307 304 303 305 307 306 304 302 299 298 296 297 297 297 297 297
289 292 288 292 292 294 290 290 290 289 291 295 295 291 291 292 295 304 306 308 311 311 310 310 311 308 309 311 309 307 309 310 311 311 310 311 311 311 311 310 309 295 306 308 305 303 301 299 298 298 298 298 298 299
290 293 293 290 291 291 291 291 292 296 299 298 295 294 297 302 305 306 305 308 310 309 307 306 308 308 306 307 306 309 308 307 305 303 302 303 305 307 310 310 308 307 307 306 289 297 302 301 301 301 301 301 302 303
292 295 292 291 290 290 294 297 298 301 303 303 302 302 303 305 309 310 306 307 307 308 309 308 308 308 306 306 305 306 308 308 308 305 303 302 305 309 310 309 308 308 307 306 304 301 287 296 295 301 301 303 303 303
296 295 293 293 292 297 299 302 303 302 301 301 302 300 299 302 307 309 308 308 308 308 309 307 307 308 307 306 306 304 304 308 309 308 307 307 307 309 311 311 311 310 306 307 304 301 301 300 301 301 302 302 303 301
296 293 293 290 293 298 300 299 298 298 299 299 299 301 302 300 298 304 307 308 309 307 299 303 306 307 309 309 309 308 295 308 308 308 307 307 307 308 311 312 312 311 307 305 302 304 303 302 302 302 303 302 303 303
295 295 296 295 294 292 297 297 295 295 297 297 295 297 298 298 296 303 308 310 310 310 308 308 310 310 310 309 308 308 303 306 298 290 290 289 289 297 309 311 311 310 308 306 306 306 305 302 302 304 305 301 299 299
Wind_Speed
11 12 13 13 15 16 17 18 19 17 17 18 17 15 14 11 13 6 4 3 4 5 16 10 12 19 18 14 13 13 9 8 7 8 6 7 7 5 5 13 8 6 7 6 8 6 6 19 11 8 11 16 16 21
11 12 14 15 14 15 17 18 19 19 18 16 18 17 14 9 17 12 4 1 3 5 14 23 26 25 23 18 13 8 11 7 4 5 5 4 8 5 11 5 6 4 4 6 4 5 7 10 9 9 13 17 13 14
12 12 13 15 15 15 17 18 18 19 19 18 18 18 16 12 19 15 2 2 2 4 11 13 15 8 14 10 9 7 1 6 5 5 4 3 6 1 5 5 7 6 3 5 8 3 15 9 14 15 15 10 12 15
12 13 14 15 15 15 17 18 19 19 20 19 18 17 14 13 18 15 3 2 1 4 6 7 10 19 14 9 12 10 14 9 3 7 5 5 5 3 5 6 4 2 10 10 9 4 16 2 16 17 18 11 12 14
12 13 14 15 16 17 17 17 18 18 20 18 19 17 18 7 14 5 4 5 5 3 6 11 23 12 2 7 17 13 11 5 1 4 5 6 5 3 5 3 1 2 4 4 5 11 3 11 14 16 9 11 12 13
13 13 14 15 16 17 17 19 19 18 19 19 21 20 5 14 11 2 4 4 9 5 5 6 12 16 14 9 6 11 7 5 4 3 6 4 2 3 4 3 3 2 4 4 4 8 7 10 9 11 9 10 12 14
13 14 14 15 17 17 17 19 20 19 18 18 23 9 14 14 5 2 2 1 5 2 3 7 7 7 5 4 8 9 9 6 5 4 4 8 4 4 2 3 4 5 1 1 2 7 3 6 5 8 10 10 13 13
13 13 14 15 16 17 18 20 21 20 18 20 7 10 8 7 5 5 8 12 2 2 4 5 7 9 3 6 6 4 6 5 6 5 6 7 3 3 2 4 4 3 2 4 5 5 4 5 9 9 11 10 14 13
13 14 14 15 16 16 17 19 21 22 20 7 9 8 2 2 3 1 7 14 5 3 4 4 6 7 4 9 7 7 4 6 4 5 8 5 6 2 2 5 1 3 4 3 5 5 6 7 8 7 10 12 12 11
14 14 15 15 16 16 17 18 21 20 10 8 2 2 2 1 13 10 1 3 3 3 4 6 8 14 11 7 7 5 5 3 4 6 5 3 2 6 8 7 6 3 2 3 1 5 5 4 6 5 8 7 8 9
15 15 16 16 16 16 16 16 16 5 2 1 1 2 2 2 1 3 4 4 3 5 6 7 12 12 9 11 7 5 3 2 2 3 3 2 1 5 8 7 5 5 2 3 8 8 7 7 7 8 8 7 8 8
15 15 15 16 16 15 15 16 14 3 1 2 3 4 2 3 3 4 4 4 7 7 8 9 6 9 2 5 5 4 2 1 5 3 3 2 5 7 7 10 4 5 1 3 6 10 9 9 7 8 9 9 8 10
15 15 16 16 16 17 15 16 15 15 5 2 3 3 3 3 5 6 6 7 6 5 3 3 3 2 4 5 6 3 7 5 1 3 3 2 9 7 8 8 6 5 2 7 6 10 10 10 10 9 9 9 10 11
16 15 17 17 17 17 16 15 14 11 4 3 4 5 6 6 7 9 10 9 4 8 3 7 4 2 5 2 5 6 5 3 4 3 2 4 9 9 9 6 7 6 7 6 6 8 10 10 10 10 9 10 11 11
16 16 18 19 18 18 15 13 12 4 3 4 4 7 10 11 11 7 4 3 7 3 5 4 2 4 4 9 3 2 2 6 3 3 5 8 11 8 9 8 7 6 8 6 6 8 9 10 8 9 8 8 11 10
16 16 15 19 14 7 7 10 4 3 3 4 7 5 11 10 9 7 7 8 7 6 4 1 4 5 8 4 5 5 4 5 3 4 8 11 12 11 8 9 8 8 9 9 8 9 9 10 10 9 8 10 10 10
15 7 9 14 12 5 6 2 2 6 5 6 5 10 13 14 13 12 10 4 5 4 2 4 6 6 4 4 4 4 4 6 7 7 7 14 13 14 10 9 9 9 9 11 10 11 11 11 11 10 11 10 9 10
14 11 10 16 11 7 3 6 4 6 8 6 9 10 12 11 10 9 9 2 2 2 2 4 5 4 4 3 1 3 3 3 7 9 9 13 11 15 12 13 12 10 9 9 12 12 12 12 10 8 11 11 9 9
14 11 12 10 8 4 4 5 5 5 8 10 12 14 14 12 11 5 5 3 4 3 5 3 6 4 5 6 3 1 8 5 8 9 9 13 11 12 13 13 12 12 11 10 9 7 8 11 9 8 6 6 7 8
22 19 16 10 5 4 5 4 3 5 7 12 14 15 13 12 9 6 6 6 5 3 6 5 5 5 5 1 2 8 5 6 8 9 9 9 8 9 10 9 8 11 9 10 8 8 8 7 8 8 8 7 5 5
12 9 14 11 5 4 5 3 5 7 8 12 14 14 13 8 6 9 9 6 6 4 4 8 7 11 6 5 1 12 5 3 7 5 8 10 9 8 7 7 9 9 8 9 9 7 7 7 7 8 9 9 10 11
5 18 6 9 5 4 5 6 5 3 7 10 7 7 8 10 10 10 7 7 6 10 10 6 10 6 5 4 7 14 6 4 4 6 6 13 10 9 8 6 8 8 7 7 7 8 8 8 8 8 8 8 8 8
11 6 4 4 7 6 7 5 8 7 6 5 5 5 6 7 4 4 5 10 11 11 10 10 12 6 7 13 14 22 7 4 4 2 6 10 11 10 9 8 8 8 8 7 6 7 8 6 6 8 8 8 7 6
6 6 7 9 9 5 6 6 4 4 6 7 5 4 6 5 6 4 7 9 9 11 12 12 9 9 4 12 5 4 7 6 7 5 3 3 10 10 9 8 8 8 7 8 7 6 7 8 9 7 8 9 9 8
5 7 4 7 6 7 7 7 6 5 6 8 5 5 4 4 4 5 8 8 7 7 6 8 8 6 8 9 8 6 11 8 5 4 4 5 8 8 9 9 7 8 8 8 7 8 8 8 9 9 9 9 10 9
7 9 9 11 8 10 9 6 9 11 7 4 6 5 3 3 4 6 3 1 3 4 5 6 6 6 3 3 5 8 3 7 6 5 4 8 5 10 9 9 8 8 7 8 9 10 10 10 10 12 11 12 9 11
6 8 7 6 5 6 4 1 1 2 4 5 4 4 3 3 5 2 3 6 6 1 6 6 6 5 3 7 1 6 8 5 6 3 6 4 2 5 6 9 11 9 10 10 10 11 11 12 12 12 11 11 11 11
4 5 8 8 6 5 4 3 5 6 5 5 5 7 4 3 3 2 2 4 3 1 4 4 0 8 7 4 2 10 6 8 6 2 6 3 3 3 4 4 6 11 8 9 10 10 11 11 11 12 11 10 10 10
4 3 3 6 4 3 4 4 4 6 7 7 4 2 3 4 5 3 2 3 4 4 5 6 6 11 8 2 8 13 6 6 7 6 4 2 4 1 4 5 5 6 7 8 6 10 13 11 11 11 12 10 8 9
5 6 5 7 5 6 5 5 6 7 3 3 2 7 8 6 4 8 8 4 3 0 2 9 5 10 13 11 7 6 4 5 5 4 2 2 3 3 6 6 7 7 5 9 11 8 6 5 5 6 8 7 6 5
7 6 5 3 3 2 4 4 2 3 2 3 6 5 5 2 3 6 7 8 4 4 1 7 9 6 6 6 6 3 3 4 6 6 5 4 4 2 1 7 7 6 6 10 9 9 10 12 12 12 12 10 10 9
3 4 3 4 3 3 3 0 2 2 5 6 6 4 0 4 4 4 6 8 7 8 4 6 1 8 7 4 4 8 6 7 11 10 12 8 8 7 4 4 4 6 8 10 7 11 16 16 12 10 11 13 13 10
4 4 1 0 2 3 3 3 2 4 5 4 4 6 7 5 4 3 4 4 5 4 0 2 4 4 6 9 9 11 12 10 10 10 9 7 8 8 5 5 4 7 10 5 4 8 14 16 12 10 7 6 7 7
Wind_Direction
325 331 326 330 330 331 333 332 332 324 321 325 325 314 300 218 200 197 265 182 216 254 286 271 295 307 297 287 286 333 322 12 319 351 344 347 326 322 313 313 322 326 332 345 327 305 337 10 346 16 294 300 317 313
323 326 323 323 327 330 330 331 329 326 321 324 322 320 306 265 195 195 259 153 189 238 281 312 286 273 262 266 275 290 293 316 340 334 346 314 308 302 320 311 339 350 23 313 295 319 354 353 312 312 312 310 323 323
324 327 320 320 324 331 330 330 326 320 322 322 322 319 308 299 193 183 235 266 224 272 278 260 292 307 213 233 232 256 125 7 345 1 321 273 280 330 309 338 317 330 51 283 323 67 346 316 336 340 331 338 334 360
319 321 320 320 325 329 326 328 327 320 317 319 318 315 308 294 189 185 214 222 246 272 274 293 317 305 298 235 217 216 266 299 342 303 289 249 284 298 306 295 301 341 314 326 275 347 322 336 343 335 329 6 9 23
314 315 319 318 320 320 322 321 321 320 313 315 316 319 320 200 163 193 240 237 238 276 304 301 300 283 273 239 229 210 222 243 237 276 251 284 283 295 296 321 327 5 332 320 312 334 284 297 324 324 7 25 22 35
309 315 316 319 320 317 324 319 317 316 316 317 317 317 282 137 138 148 273 169 209 206 280 302 331 288 259 203 230 223 213 185 209 250 281 247 258 262 310 292 207 159 241 217 281 311 287 291 320 352 49 42 39 47
310 313 316 319 315 318 319 319 322 319 318 320 315 291 140 149 174 200 295 47 341 133 254 283 271 194 235 199 208 207 190 213 232 248 249 255 265 222 258 282 159 262 25 20 20 312 283 9 27 13 59 57 62 57
305 311 314 316 314 318 317 320 320 322 322 322 110 114 140 172 262 285 241 193 186 237 255 270 274 275 194 238 212 161 207 210 211 256 251 260 237 239 251 225 215 300 61 73 38 8 26 52 49 40 66 57 65 62
299 305 309 316 319 318 317 317 321 319 319 124 112 110 112 243 228 4 99 142 186 266 271 261 265 289 237 250 274 186 193 229 174 237 260 260 266 208 319 8 28 5 21 63 84 68 66 70 65 47 70 64 62 64
291 299 303 307 314 318 318 320 323 318 125 116 279 242 235 272 113 108 157 164 194 222 231 254 255 266 299 303 233 21 305 238 231 211 262 285 310 85 71 62 49 59 83 46 93 111 106 49 96 93 82 61 67 75
290 293 297 304 308 315 319 319 340 74 11 315 283 257 353 169 192 227 209 213 176 239 220 237 233 253 246 257 273 227 233 223 278 230 250 271 275 98 96 100 86 106 55 46 86 94 99 125 122 116 107 97 85 89
286 291 295 298 305 309 316 313 322 283 282 337 306 288 257 239 232 260 224 200 211 248 177 238 220 228 241 244 261 262 274 293 250 209 207 240 101 104 113 119 119 115 127 90 79 103 104 113 113 111 113 106 100 104
282 287 290 294 299 304 305 308 309 309 253 220 246 252 232 193 231 223 210 209 220 222 313 254 250 267 208 238 241 239 221 222 258 242 201 71 130 117 113 127 133 143 151 105 95 102 109 108 120 125 118 115 108 108
278 283 285 287 291 292 293 299 298 306 245 233 229 245 224 204 228 210 247 283 192 241 333 340 355 25 317 308 234 212 239 183 223 244 58 127 113 118 116 142 144 141 109 117 120 114 118 122 125 130 135 138 137 137
276 279 283 283 277 276 279 277 280 276 248 246 218 238 221 237 269 264 236 315 279 344 338 352 288 233 274 244 231 284 250 231 45 42 101 112 119 129 122 147 136 133 127 139 132 124 122 127 129 135 158 151 142 138
273 283 262 258 271 290 320 290 225 194 232 240 225 258 261 275 268 315 324 318 12 353 2 118 260 242 228 256 217 226 267 14 75 107 127 131 125 132 134 137 151 152 136 139 141 135 134 133 142 139 126 129 144 150
261 246 238 246 255 256 213 277 227 214 233 225 227 225 263 280 281 286 289 308 6 334 194 265 254 235 257 221 216 220 197 136 143 130 106 124 133 141 154 147 146 146 144 140 142 143 140 138 141 147 151 162 161 149
243 262 264 237 243 263 232 199 236 235 233 227 253 258 261 260 272 291 307 232 197 213 207 248 282 269 282 250 202 108 321 183 98 112 125 128 138 143 157 154 158 161 158 153 157 151 149 153 156 163 162 168 167 165
237 244 241 243 239 221 247 216 224 249 229 247 249 246 250 263 254 250 289 254 260 256 291 253 253 229 207 280 10 227 177 164 114 108 125 136 154 153 145 148 151 151 151 157 152 158 158 164 164 161 156 167 163 157
229 238 249 252 231 196 237 236 219 237 248 243 242 247 251 249 251 245 270 231 211 228 214 226 246 247 256 55 54 280 150 154 135 134 142 146 150 148 152 158 162 157 162 160 177 161 164 173 159 165 163 172 173 182
208 212 229 209 189 214 271 244 235 246 250 244 236 233 230 244 263 266 243 200 197 211 219 224 231 257 34 111 237 280 88 97 118 158 167 157 162 157 160 178 162 173 175 174 169 186 175 189 178 186 173 182 198 169
163 183 166 176 192 235 248 231 244 307 289 267 263 276 241 242 241 236 224 201 226 227 217 207 240 185 66 22 292 301 82 138 100 120 132 137 163 172 167 177 177 179 186 181 176 172 194 189 171 183 184 195 208 182
120 139 149 150 198 222 253 218 234 190 235 275 254 227 223 228 224 165 226 220 227 226 222 226 246 244 183 172 220 248 216 169 156 136 140 172 162 174 174 190 185 184 186 178 181 166 181 181 151 184 181 195 200 136
108 164 188 186 205 222 226 207 242 223 252 242 241 260 263 219 144 235 239 223 212 206 216 215 214 221 208 214 188 239 188 202 128 179 209 204 157 169 180 183 201 179 191 166 178 164 158 167 159 198 180 189 193 191
170 186 208 202 216 229 228 185 198 227 246 231 252 241 232 249 218 231 232 218 216 213 212 205 208 220 210 235 192 195 145 229 151 156 170 251 153 165 177 187 192 179 174 163 175 172 161 165 174 191 185 188 195 188
216 193 200 198 208 211 213 210 202 205 206 208 228 246 212 228 245 245 269 248 183 177 193 212 206 256 249 112 94 269 221 133 132 180 177 248 176 173 184 179 180 176 183 167 175 181 167 174 188 191 182 186 186 183
230 209 200 202 260 247 233 195 214 219 191 222 222 230 193 227 239 163 233 131 115 133 161 223 266 202 98 137 289 153 255 190 147 106 174 244 193 124 184 188 191 185 189 176 172 181 180 177 192 190 187 184 185 209
272 283 235 213 202 236 256 222 198 212 222 213 209 209 216 299 77 97 75 73 50 354 279 233 20 78 46 28 299 300 134 90 89 190 113 93 28 74 58 177 173 162 196 174 172 176 182 179 191 185 186 184 182 194
243 244 226 227 208 232 236 242 241 208 235 254 234 310 64 71 124 100 95 127 166 206 207 209 152 112 71 354 242 251 133 157 119 107 109 155 161 261 177 113 154 169 196 167 160 170 182 179 187 188 194 199 195 192
188 190 212 187 213 215 206 216 235 218 147 87 42 68 74 65 357 34 24 336 100 121 339 317 206 148 176 182 140 112 122 120 149 153 170 198 191 192 166 169 178 175 200 174 171 152 110 172 175 206 206 200 204 211
157 201 221 230 245 193 199 107 73 80 88 59 48 91 102 68 358 15 11 345 340 77 341 304 105 82 111 136 125 155 129 69 86 66 25 350 18 128 215 191 195 190 155 199 172 154 168 212 207 202 200 190 221 218
210 211 192 186 168 129 96 232 159 121 94 77 51 23 260 179 157 26 360 332 0 101 302 318 68 130 120 149 145 102 49 61 57 45 27 4 338 337 288 222 193 151 173 168 166 190 214 206 218 194 198 211 224 219
237 219 120 197 175 172 203 193 172 108 92 81 44 8 359 5 45 12 340 321 327 105 276 324 277 108 99 83 96 96 83 82 83 74 67 53 33 4 60 96 132 175 170 128 296 233 222 194 212 218 189 95 61 30